Time,TemperatureF,DewpointF,PressureIn,WindDirection,WindDirectionDegrees,WindSpeedMPH,WindSpeedGustMPH,Humidity,HourlyPrecipIn,Conditions,Clouds,dailyrainin,SoftwareType,DateUTC
2013-03-31 00:00:00,44.5,30.7,30.12,SW,222,1.0,2.0,58,0.00,,---,0.00,VWS V14.01,2013-03-31 04:00:00,
2013-03-31 00:01:00,44.5,30.7,30.12,SW,222,0.0,0.0,58,0.00,,---,0.00,VWS V14.01,2013-03-31 04:01:00,
2013-03-31 00:06:00,44.3,30.9,30.12,SW,222,0.0,1.0,59,0.00,,---,0.00,VWS V14.01,2013-03-31 04:06:00,
2013-03-31 00:11:00,44.3,30.9,30.12,SW,222,0.0,2.0,59,0.00,,---,0.00,VWS V14.01,2013-03-31 04:11:00,
2013-03-31 00:17:00,44.1,31.1,30.11,SW,222,0.0,2.0,60,0.00,,---,0.00,VWS V14.01,2013-03-31 04:17:00,
2013-03-31 00:22:00,44.0,31.0,30.11,SW,222,0.0,2.0,60,0.00,,---,0.00,VWS V14.01,2013-03-31 04:22:00,
2013-03-31 00:27:00,43.8,30.8,30.11,SW,222,0.0,2.0,60,0.00,,---,0.00,VWS V14.01,2013-03-31 04:27:00,
2013-03-31 00:30:00,43.6,30.6,30.11,SW,222,0.0,2.0,60,0.00,,---,0.00,VWS V14.01,2013-03-31 04:30:00,
2013-03-31 00:32:00,43.6,30.6,30.11,SW,222,0.0,0.0,60,0.00,,---,0.00,VWS V14.01,2013-03-31 04:32:00,
2013-03-31 00:37:00,43.1,30.6,30.11,SW,222,0.0,0.0,61,0.00,,---,0.00,VWS V14.01,2013-03-31 04:37:00,
2013-03-31 00:42:00,42.8,30.7,30.11,SW,222,0.0,1.0,62,0.00,,---,0.00,VWS V14.01,2013-03-31 04:42:00,
2013-03-31 00:47:00,42.4,30.7,30.11,SW,222,0.0,1.0,63,0.00,,---,0.00,VWS V14.01,2013-03-31 04:47:00,
2013-03-31 00:52:00,41.9,30.6,30.11,SW,222,0.0,1.0,64,0.00,,---,0.00,VWS V14.01,2013-03-31 04:52:00,
2013-03-31 00:58:00,41.5,30.6,30.11,SW,222,0.0,1.0,65,0.00,,---,0.00,VWS V14.01,2013-03-31 04:58:00,
2013-03-31 01:05:00,40.9,30.1,30.11,SW,222,0.0,0.0,65,0.00,,---,0.00,VWS V14.01,2013-03-31 05:05:00,
2013-03-31 01:10:00,40.5,30.4,30.11,SW,222,0.0,0.0,67,0.00,,---,0.00,VWS V14.01,2013-03-31 05:10:00,
2013-03-31 01:15:00,40.0,30.3,30.11,SW,222,0.0,0.0,68,0.00,,---,0.00,VWS V14.01,2013-03-31 05:15:00,
2013-03-31 01:20:00,39.7,30.0,30.11,SW,222,0.0,0.0,68,0.00,,---,0.00,VWS V14.01,2013-03-31 05:20:00,
2013-03-31 01:25:00,39.4,29.7,30.11,SW,222,0.0,0.0,68,0.00,,---,0.00,VWS V14.01,2013-03-31 05:25:00,
2013-03-31 01:30:00,39.1,30.2,30.11,SW,222,0.0,0.0,70,0.00,,---,0.00,VWS V14.01,2013-03-31 05:30:00,
2013-03-31 01:35:00,38.8,29.9,30.11,SW,222,0.0,0.0,70,0.00,,---,0.00,VWS V14.01,2013-03-31 05:35:00,
2013-03-31 01:40:00,38.5,29.9,30.11,SW,222,0.0,0.0,71,0.00,,---,0.00,VWS V14.01,2013-03-31 05:40:00,
2013-03-31 01:45:00,38.2,30.0,30.11,SW,222,0.0,0.0,72,0.00,,---,0.00,VWS V14.01,2013-03-31 05:45:00,
2013-03-31 01:50:00,37.9,29.7,30.11,SW,222,0.0,0.0,72,0.00,,---,0.00,VWS V14.01,2013-03-31 05:50:00,
2013-03-31 01:56:00,37.7,29.5,30.11,SW,222,0.0,0.0,72,0.00,,---,0.00,VWS V14.01,2013-03-31 05:56:00,
2013-03-31 02:00:00,37.5,29.6,30.11,SW,222,0.0,0.0,73,0.00,,---,0.00,VWS V14.01,2013-03-31 06:00:00,
2013-03-31 02:01:00,37.5,29.6,30.11,SW,222,0.0,0.0,73,0.00,,---,0.00,VWS V14.01,2013-03-31 06:01:00,
2013-03-31 02:07:00,37.2,29.4,30.11,SW,222,0.0,0.0,73,0.00,,---,0.00,VWS V14.01,2013-03-31 06:07:00,
2013-03-31 02:12:00,37.0,29.5,30.11,SW,222,0.0,0.0,74,0.00,,---,0.00,VWS V14.01,2013-03-31 06:12:00,
2013-03-31 02:17:00,36.7,29.2,30.11,SW,222,0.0,0.0,74,0.00,,---,0.00,VWS V14.01,2013-03-31 06:17:00,
2013-03-31 02:22:00,36.5,29.3,30.10,SW,222,0.0,0.0,75,0.00,,---,0.00,VWS V14.01,2013-03-31 06:22:00,
2013-03-31 02:27:00,36.3,29.1,30.10,SW,222,0.0,0.0,75,0.00,,---,0.00,VWS V14.01,2013-03-31 06:27:00,
2013-03-31 02:30:00,36.1,29.0,30.10,SW,222,0.0,0.0,75,0.00,,---,0.00,VWS V14.01,2013-03-31 06:30:00,
2013-03-31 02:32:00,36.1,29.3,30.10,SW,222,0.0,0.0,76,0.00,,---,0.00,VWS V14.01,2013-03-31 06:32:00,
2013-03-31 02:37:00,36.2,29.4,30.10,SW,222,0.0,0.0,76,0.00,,---,0.00,VWS V14.01,2013-03-31 06:37:00,
2013-03-31 02:42:00,36.2,29.4,30.10,SW,222,0.0,0.0,76,0.00,,---,0.00,VWS V14.01,2013-03-31 06:42:00,
2013-03-31 02:47:00,36.1,29.3,30.10,SW,222,0.0,0.0,76,0.00,,---,0.00,VWS V14.01,2013-03-31 06:47:00,
2013-03-31 02:52:00,35.9,29.1,30.11,SW,222,0.0,0.0,76,0.00,,---,0.00,VWS V14.01,2013-03-31 06:52:00,
2013-03-31 02:57:00,35.6,29.1,30.11,SW,222,0.0,0.0,77,0.00,,---,0.00,VWS V14.01,2013-03-31 06:57:00,
2013-03-31 03:00:00,35.5,29.0,30.10,SW,222,0.0,0.0,77,0.00,,---,0.00,VWS V14.01,2013-03-31 07:00:00,
2013-03-31 03:02:00,35.3,28.8,30.10,SW,222,0.0,0.0,77,0.00,,---,0.00,VWS V14.01,2013-03-31 07:02:00,
2013-03-31 03:07:00,35.2,28.7,30.11,SW,222,0.0,0.0,77,0.00,,---,0.00,VWS V14.01,2013-03-31 07:07:00,
2013-03-31 03:12:00,35.0,28.9,30.10,SW,222,0.0,0.0,78,0.00,,---,0.00,VWS V14.01,2013-03-31 07:12:00,
2013-03-31 03:17:00,34.9,28.8,30.10,SW,222,0.0,0.0,78,0.00,,---,0.00,VWS V14.01,2013-03-31 07:17:00,
2013-03-31 03:22:00,34.8,28.6,30.10,SW,222,0.0,0.0,78,0.00,,---,0.00,VWS V14.01,2013-03-31 07:22:00,
2013-03-31 03:27:00,34.7,28.5,30.10,SW,222,0.0,0.0,78,0.00,,---,0.00,VWS V14.01,2013-03-31 07:27:00,
2013-03-31 03:30:00,34.6,28.5,30.10,SW,222,0.0,0.0,78,0.00,,---,0.00,VWS V14.01,2013-03-31 07:30:00,
2013-03-31 03:32:00,34.4,28.6,30.10,SW,222,0.0,0.0,79,0.00,,---,0.00,VWS V14.01,2013-03-31 07:32:00,
2013-03-31 03:38:00,34.4,28.6,30.10,SW,222,0.0,0.0,79,0.00,,---,0.00,VWS V14.01,2013-03-31 07:38:00,
2013-03-31 03:43:00,34.4,28.6,30.09,SW,222,0.0,0.0,79,0.00,,---,0.00,VWS V14.01,2013-03-31 07:43:00,
2013-03-31 03:48:00,34.4,28.9,30.09,SW,222,0.0,0.0,80,0.00,,---,0.00,VWS V14.01,2013-03-31 07:48:00,
2013-03-31 03:53:00,34.4,28.9,30.09,SW,222,0.0,0.0,80,0.00,,---,0.00,VWS V14.01,2013-03-31 07:53:00,
2013-03-31 03:58:00,34.4,28.9,30.09,SW,222,0.0,0.0,80,0.00,,---,0.00,VWS V14.01,2013-03-31 07:58:00,
2013-03-31 04:05:00,34.5,29.3,30.09,SW,222,0.0,0.0,81,0.00,,---,0.00,VWS V14.01,2013-03-31 08:05:00,
2013-03-31 04:10:00,34.4,29.2,30.09,SW,222,0.0,0.0,81,0.00,,---,0.00,VWS V14.01,2013-03-31 08:10:00,
2013-03-31 04:15:00,34.4,29.2,30.09,SW,222,0.0,0.0,81,0.00,,---,0.00,VWS V14.01,2013-03-31 08:15:00,
2013-03-31 04:20:00,34.4,29.2,30.09,SW,222,0.0,0.0,81,0.00,,---,0.00,VWS V14.01,2013-03-31 08:20:00,
2013-03-31 04:25:00,34.3,29.1,30.09,SW,222,0.0,0.0,81,0.00,,---,0.00,VWS V14.01,2013-03-31 08:25:00,
2013-03-31 04:30:00,34.2,29.3,30.09,SW,222,0.0,0.0,82,0.00,,---,0.00,VWS V14.01,2013-03-31 08:30:00,
2013-03-31 04:35:00,34.1,29.2,30.09,SW,222,0.0,0.0,82,0.00,,---,0.00,VWS V14.01,2013-03-31 08:35:00,
2013-03-31 04:40:00,34.0,29.1,30.09,SW,222,0.0,0.0,82,0.00,,---,0.00,VWS V14.01,2013-03-31 08:40:00,
2013-03-31 04:45:00,33.9,29.3,30.09,SW,222,0.0,0.0,83,0.00,,---,0.00,VWS V14.01,2013-03-31 08:45:00,
2013-03-31 04:50:00,33.7,29.1,30.09,SW,222,0.0,0.0,83,0.00,,---,0.00,VWS V14.01,2013-03-31 08:50:00,
2013-03-31 04:56:00,33.6,29.0,30.09,SW,222,0.0,0.0,83,0.00,,---,0.00,VWS V14.01,2013-03-31 08:56:00,
2013-03-31 05:00:00,33.5,28.9,30.09,SW,222,0.0,0.0,83,0.00,,---,0.00,VWS V14.01,2013-03-31 09:00:00,
2013-03-31 05:01:00,33.5,28.9,30.09,SW,222,0.0,0.0,83,0.00,,---,0.00,VWS V14.01,2013-03-31 09:01:00,
2013-03-31 05:06:00,33.4,29.1,30.08,SW,222,0.0,0.0,84,0.00,,---,0.00,VWS V14.01,2013-03-31 09:06:00,
2013-03-31 05:11:00,33.3,29.0,30.08,SW,222,0.0,0.0,84,0.00,,---,0.00,VWS V14.01,2013-03-31 09:11:00,
2013-03-31 05:16:00,33.3,29.0,30.08,SW,222,0.0,0.0,84,0.00,,---,0.00,VWS V14.01,2013-03-31 09:16:00,
2013-03-31 05:21:00,33.2,29.2,30.08,SW,222,0.0,0.0,85,0.00,,---,0.00,VWS V14.01,2013-03-31 09:21:00,
2013-03-31 05:27:00,33.2,29.2,30.08,SW,222,0.0,0.0,85,0.00,,---,0.00,VWS V14.01,2013-03-31 09:27:00,
2013-03-31 05:30:00,33.1,29.1,30.08,SW,222,0.0,0.0,85,0.00,,---,0.00,VWS V14.01,2013-03-31 09:30:00,
2013-03-31 05:32:00,33.1,29.1,30.08,SW,222,0.0,0.0,85,0.00,,---,0.00,VWS V14.01,2013-03-31 09:32:00,
2013-03-31 05:37:00,33.0,29.0,30.08,SW,222,0.0,0.0,85,0.00,,---,0.00,VWS V14.01,2013-03-31 09:37:00,
2013-03-31 05:42:00,33.0,29.3,30.08,SW,222,0.0,0.0,86,0.00,,---,0.00,VWS V14.01,2013-03-31 09:42:00,
2013-03-31 05:47:00,33.0,29.3,30.08,SW,222,0.0,0.0,86,0.00,,---,0.00,VWS V14.01,2013-03-31 09:47:00,
2013-03-31 05:52:00,33.0,29.3,30.08,SW,222,0.0,0.0,86,0.00,,---,0.00,VWS V14.01,2013-03-31 09:52:00,
2013-03-31 05:57:00,33.1,29.4,30.08,SW,222,0.0,0.0,86,0.00,,---,0.00,VWS V14.01,2013-03-31 09:57:00,
2013-03-31 06:00:00,33.0,29.3,30.07,SW,222,0.0,0.0,86,0.00,,---,0.00,VWS V14.01,2013-03-31 10:00:00,
2013-03-31 06:02:00,33.0,29.3,30.07,SW,222,0.0,0.0,86,0.00,,---,0.00,VWS V14.01,2013-03-31 10:02:00,
2013-03-31 06:07:00,32.8,29.1,30.07,SW,222,0.0,0.0,86,0.00,,---,0.00,VWS V14.01,2013-03-31 10:07:00,
2013-03-31 06:12:00,32.7,29.0,30.08,SW,222,0.0,0.0,86,0.00,,---,0.00,VWS V14.01,2013-03-31 10:12:00,
2013-03-31 06:18:00,32.6,28.9,30.07,SW,222,0.0,0.0,86,0.00,,---,0.00,VWS V14.01,2013-03-31 10:18:00,
2013-03-31 06:23:00,32.6,28.9,30.07,SW,222,0.0,0.0,86,0.00,,---,0.00,VWS V14.01,2013-03-31 10:23:00,
2013-03-31 06:28:00,32.5,28.8,30.07,SW,222,0.0,0.0,86,0.00,,---,0.00,VWS V14.01,2013-03-31 10:28:00,
2013-03-31 06:30:00,32.5,29.1,30.07,SW,222,0.0,0.0,87,0.00,,---,0.00,VWS V14.01,2013-03-31 10:30:00,
2013-03-31 06:33:00,32.6,29.2,30.07,SW,222,0.0,0.0,87,0.00,,---,0.00,VWS V14.01,2013-03-31 10:33:00,
2013-03-31 06:38:00,32.6,29.2,30.07,SW,222,0.0,0.0,87,0.00,,---,0.00,VWS V14.01,2013-03-31 10:38:00,
2013-03-31 06:43:00,32.7,29.3,30.07,SW,222,0.0,0.0,87,0.00,,---,0.00,VWS V14.01,2013-03-31 10:43:00,
2013-03-31 06:48:00,32.8,29.4,30.07,SW,222,0.0,0.0,87,0.00,,---,0.00,VWS V14.01,2013-03-31 10:48:00,
2013-03-31 06:53:00,32.7,29.3,30.07,SW,222,0.0,0.0,87,0.00,,---,0.00,VWS V14.01,2013-03-31 10:53:00,
2013-03-31 06:58:00,32.7,29.3,30.07,SW,222,0.0,0.0,87,0.00,,---,0.00,VWS V14.01,2013-03-31 10:58:00,
2013-03-31 07:05:00,32.7,29.5,30.07,SW,222,0.0,0.0,88,0.00,,---,0.00,VWS V14.01,2013-03-31 11:05:00,
2013-03-31 07:10:00,32.8,29.6,30.07,SW,222,0.0,0.0,88,0.00,,---,0.00,VWS V14.01,2013-03-31 11:10:00,
2013-03-31 07:15:00,32.9,29.7,30.07,SW,222,0.0,0.0,88,0.00,,---,0.00,VWS V14.01,2013-03-31 11:15:00,
2013-03-31 07:20:00,33.1,29.9,30.06,SW,222,0.0,0.0,88,0.00,,---,0.00,VWS V14.01,2013-03-31 11:20:00,
2013-03-31 07:25:00,33.3,30.1,30.07,SW,222,0.0,0.0,88,0.00,,---,0.00,VWS V14.01,2013-03-31 11:25:00,
2013-03-31 07:30:00,33.4,30.2,30.07,SW,222,0.0,0.0,88,0.00,,---,0.00,VWS V14.01,2013-03-31 11:30:00,
2013-03-31 07:35:00,33.8,30.6,30.07,SW,222,0.0,0.0,88,0.00,,---,0.00,VWS V14.01,2013-03-31 11:35:00,
2013-03-31 07:40:00,34.3,31.1,30.07,SW,222,0.0,0.0,88,0.00,,---,0.00,VWS V14.01,2013-03-31 11:40:00,
2013-03-31 07:46:00,34.4,31.2,30.07,SW,222,0.0,0.0,88,0.00,,---,0.00,VWS V14.01,2013-03-31 11:46:00,
2013-03-31 07:51:00,35.0,31.8,30.06,SW,222,0.0,0.0,88,0.00,,---,0.00,VWS V14.01,2013-03-31 11:51:00,
2013-03-31 07:56:00,35.7,32.8,30.06,SW,222,0.0,1.0,89,0.00,,---,0.00,VWS V14.01,2013-03-31 11:56:00,
2013-03-31 08:00:00,36.6,33.7,30.06,SW,222,0.0,1.0,89,0.00,,---,0.00,VWS V14.01,2013-03-31 12:00:00,
2013-03-31 08:01:00,36.6,33.7,30.06,SW,222,0.0,0.0,89,0.00,,---,0.00,VWS V14.01,2013-03-31 12:01:00,
2013-03-31 08:06:00,37.4,34.2,30.06,SW,222,0.0,1.0,88,0.00,,---,0.00,VWS V14.01,2013-03-31 12:06:00,
2013-03-31 08:11:00,38.0,34.5,30.06,SW,222,0.0,1.0,87,0.00,,---,0.00,VWS V14.01,2013-03-31 12:11:00,
2013-03-31 08:16:00,38.7,34.9,30.06,SW,222,0.0,1.0,86,0.00,,---,0.00,VWS V14.01,2013-03-31 12:16:00,
2013-03-31 08:21:00,39.2,35.1,30.06,SW,222,0.0,1.0,85,0.00,,---,0.00,VWS V14.01,2013-03-31 12:21:00,
2013-03-31 08:26:00,39.9,35.8,30.06,SW,222,0.0,1.0,85,0.00,,---,0.00,VWS V14.01,2013-03-31 12:26:00,
2013-03-31 08:30:00,40.6,36.2,30.06,SW,222,0.0,1.0,84,0.00,,---,0.00,VWS V14.01,2013-03-31 12:30:00,
2013-03-31 08:31:00,40.7,36.2,30.06,SW,222,0.0,0.0,84,0.00,,---,0.00,VWS V14.01,2013-03-31 12:31:00,
2013-03-31 08:36:00,41.6,36.8,30.06,SSE,167,0.0,3.0,83,0.00,,---,0.00,VWS V14.01,2013-03-31 12:36:00,
2013-03-31 08:42:00,42.5,37.1,30.06,SSE,158,0.0,4.0,81,0.00,,---,0.00,VWS V14.01,2013-03-31 12:42:00,
2013-03-31 08:47:00,43.3,37.6,30.06,South,173,0.0,4.0,80,0.00,,---,0.00,VWS V14.01,2013-03-31 12:47:00,
2013-03-31 08:52:00,44.3,37.6,30.06,SE,127,0.0,4.0,77,0.00,,---,0.00,VWS V14.01,2013-03-31 12:52:00,
2013-03-31 08:57:00,45.2,37.8,30.06,SE,136,2.0,7.0,75,0.00,,---,0.00,VWS V14.01,2013-03-31 12:57:00,
2013-03-31 09:00:00,45.6,38.2,30.06,SE,136,0.0,7.0,75,0.00,,---,0.00,VWS V14.01,2013-03-31 13:00:00,
2013-03-31 09:02:00,45.8,38.0,30.05,ESE,106,3.0,4.0,74,0.00,,---,0.00,VWS V14.01,2013-03-31 13:02:00,
2013-03-31 09:08:00,46.4,38.2,30.05,ESE,114,1.0,4.0,73,0.00,,---,0.00,VWS V14.01,2013-03-31 13:08:00,
2013-03-31 09:13:00,47.1,37.8,30.05,SE,132,3.0,7.0,70,0.00,,---,0.00,VWS V14.01,2013-03-31 13:13:00,
2013-03-31 09:18:00,47.6,38.3,30.05,SE,132,0.0,7.0,70,0.00,,---,0.00,VWS V14.01,2013-03-31 13:18:00,
2013-03-31 09:23:00,48.0,38.0,30.05,SSE,149,0.0,7.0,68,0.00,,---,0.00,VWS V14.01,2013-03-31 13:23:00,
2013-03-31 09:28:00,48.5,38.4,30.04,SE,139,3.0,7.0,68,0.00,,---,0.00,VWS V14.01,2013-03-31 13:28:00,
2013-03-31 09:30:00,48.6,37.8,30.05,SE,145,1.0,7.0,66,0.00,,---,0.00,VWS V14.01,2013-03-31 13:30:00,
2013-03-31 09:33:00,48.7,37.9,30.05,SSE,147,0.0,3.0,66,0.00,,---,0.00,VWS V14.01,2013-03-31 13:33:00,
2013-03-31 09:38:00,49.2,38.7,30.04,SE,134,5.0,8.0,67,0.00,,---,0.00,VWS V14.01,2013-03-31 13:38:00,
2013-03-31 09:43:00,49.7,37.6,30.05,SSE,153,4.0,10.0,63,0.00,,---,0.00,VWS V14.01,2013-03-31 13:43:00,
2013-03-31 09:48:00,50.2,38.1,30.04,SE,146,3.0,10.0,63,0.00,,---,0.00,VWS V14.01,2013-03-31 13:48:00,
2013-03-31 09:53:00,50.6,38.1,30.04,SE,132,5.0,10.0,62,0.00,,---,0.00,VWS V14.01,2013-03-31 13:53:00,
2013-03-31 09:58:00,51.0,37.6,30.04,SSE,166,3.0,10.0,60,0.00,,---,0.00,VWS V14.01,2013-03-31 13:58:00,
2013-03-31 10:05:00,51.7,37.4,30.03,SE,144,2.0,2.0,58,0.00,,---,0.00,VWS V14.01,2013-03-31 14:05:00,
2013-03-31 10:10:00,52.3,38.0,30.03,SSW,207,6.0,6.0,58,0.00,,---,0.00,VWS V14.01,2013-03-31 14:10:00,
2013-03-31 10:15:00,52.9,37.2,30.03,SSE,157,7.0,9.0,55,0.00,,---,0.00,VWS V14.01,2013-03-31 14:15:00,
2013-03-31 10:20:00,53.5,36.3,30.03,South,188,3.0,11.0,52,0.00,,---,0.00,VWS V14.01,2013-03-31 14:20:00,
2013-03-31 10:25:00,53.8,36.1,30.02,SE,132,5.0,14.0,51,0.00,,---,0.00,VWS V14.01,2013-03-31 14:25:00,
2013-03-31 10:30:00,54.0,35.8,30.02,South,189,5.0,14.0,50,0.00,,---,0.00,VWS V14.01,2013-03-31 14:30:00,
2013-03-31 10:35:00,53.9,35.7,30.02,SE,138,11.0,16.0,50,0.00,,---,0.00,VWS V14.01,2013-03-31 14:35:00,
2013-03-31 10:41:00,53.9,35.2,30.01,South,180,4.0,16.0,49,0.00,,---,0.00,VWS V14.01,2013-03-31 14:41:00,
2013-03-31 10:46:00,54.1,35.4,30.01,SE,142,10.0,16.0,49,0.00,,---,0.00,VWS V14.01,2013-03-31 14:46:00,
2013-03-31 10:51:00,54.0,35.3,30.01,SE,140,2.0,16.0,49,0.00,,---,0.00,VWS V14.01,2013-03-31 14:51:00,
2013-03-31 10:56:00,54.2,36.0,30.01,South,180,5.0,16.0,50,0.00,,---,0.00,VWS V14.01,2013-03-31 14:56:00,
2013-03-31 11:00:00,54.6,36.8,30.00,South,173,7.0,16.0,51,0.00,,---,0.00,VWS V14.01,2013-03-31 15:00:00,
2013-03-31 11:01:00,54.6,36.8,30.00,SE,144,10.0,10.0,51,0.00,,---,0.00,VWS V14.01,2013-03-31 15:01:00,
2013-03-31 11:06:00,54.8,35.5,30.00,SE,132,15.0,17.0,48,0.00,,---,0.00,VWS V14.01,2013-03-31 15:06:00,
2013-03-31 11:11:00,54.9,36.1,30.00,South,169,7.0,17.0,49,0.00,,---,0.00,VWS V14.01,2013-03-31 15:11:00,
2013-03-31 11:16:00,55.2,36.4,29.99,SE,129,8.0,17.0,49,0.00,,---,0.00,VWS V14.01,2013-03-31 15:16:00,
2013-03-31 11:21:00,55.4,36.1,29.99,SE,130,4.0,18.0,48,0.00,,---,0.00,VWS V14.01,2013-03-31 15:21:00,
2013-03-31 11:26:00,55.5,36.2,29.99,SSE,162,5.0,18.0,48,0.00,,---,0.00,VWS V14.01,2013-03-31 15:26:00,
2013-03-31 11:30:00,55.8,35.9,29.99,SE,131,5.0,18.0,47,0.00,,---,0.00,VWS V14.01,2013-03-31 15:30:00,
2013-03-31 11:31:00,55.8,35.9,29.99,SSE,157,7.0,21.0,47,0.00,,---,0.00,VWS V14.01,2013-03-31 15:31:00,
2013-03-31 11:36:00,55.8,34.8,29.98,SSE,163,4.0,21.0,45,0.00,,---,0.00,VWS V14.01,2013-03-31 15:36:00,
2013-03-31 11:42:00,56.1,35.6,29.98,SE,140,10.0,21.0,46,0.00,,---,0.00,VWS V14.01,2013-03-31 15:42:00,
2013-03-31 11:47:00,56.4,35.3,29.98,South,171,6.0,21.0,45,0.00,,---,0.00,VWS V14.01,2013-03-31 15:47:00,
2013-03-31 11:52:00,56.4,34.8,29.97,SSE,161,8.0,21.0,44,0.00,,---,0.00,VWS V14.01,2013-03-31 15:52:00,
2013-03-31 11:57:00,56.4,34.8,29.97,South,184,0.0,21.0,44,0.00,,---,0.00,VWS V14.01,2013-03-31 15:57:00,
2013-03-31 12:00:00,56.7,35.0,29.97,SSE,162,2.0,21.0,44,0.00,,---,0.00,VWS V14.01,2013-03-31 16:00:00,
2013-03-31 12:02:00,56.8,35.1,29.97,SSE,158,2.0,7.0,44,0.00,,---,0.00,VWS V14.01,2013-03-31 16:02:00,
2013-03-31 12:07:00,56.9,34.7,29.97,ESE,109,4.0,11.0,43,0.00,,---,0.00,VWS V14.01,2013-03-31 16:07:00,
2013-03-31 12:12:00,56.7,35.0,29.97,ESE,115,6.0,16.0,44,0.00,,---,0.00,VWS V14.01,2013-03-31 16:12:00,
2013-03-31 12:17:00,56.7,35.0,29.96,SE,132,4.0,16.0,44,0.00,,---,0.00,VWS V14.01,2013-03-31 16:17:00,
2013-03-31 12:22:00,57.2,36.1,29.96,SSE,155,2.0,16.0,45,0.00,,---,0.00,VWS V14.01,2013-03-31 16:22:00,
2013-03-31 12:27:00,57.3,36.2,29.96,SE,134,9.0,16.0,45,0.00,,---,0.00,VWS V14.01,2013-03-31 16:27:00,
2013-03-31 12:30:00,57.5,36.3,29.96,SE,138,4.0,16.0,45,0.00,,---,0.00,VWS V14.01,2013-03-31 16:30:00,
2013-03-31 12:32:00,57.5,35.8,29.95,SSE,152,5.0,11.0,44,0.00,,---,0.00,VWS V14.01,2013-03-31 16:32:00,
2013-03-31 12:37:00,57.1,36.0,29.95,SSE,160,5.0,17.0,45,0.00,,---,0.00,VWS V14.01,2013-03-31 16:37:00,
2013-03-31 12:42:00,57.1,36.5,29.95,SSE,150,3.0,17.0,46,0.00,,---,0.00,VWS V14.01,2013-03-31 16:42:00,
2013-03-31 12:47:00,57.3,36.7,29.95,South,171,5.0,17.0,46,0.00,,---,0.00,VWS V14.01,2013-03-31 16:47:00,
2013-03-31 12:52:00,57.1,37.1,29.94,SSW,202,5.0,17.0,47,0.00,,---,0.00,VWS V14.01,2013-03-31 16:52:00,
2013-03-31 12:58:00,57.0,37.0,29.94,ESE,122,1.0,17.0,47,0.00,,---,0.00,VWS V14.01,2013-03-31 16:58:00,
2013-03-31 13:05:00,56.6,37.2,29.94,SE,126,10.0,10.0,48,0.00,,---,0.00,VWS V14.01,2013-03-31 17:05:00,
2013-03-31 13:10:00,56.2,37.3,29.94,South,183,2.0,18.0,49,0.00,,---,0.00,VWS V14.01,2013-03-31 17:10:00,
2013-03-31 13:15:00,56.0,36.6,29.93,SE,130,13.0,18.0,48,0.00,,---,0.00,VWS V14.01,2013-03-31 17:15:00,
2013-03-31 13:20:00,56.0,37.1,29.92,South,178,3.0,18.0,49,0.00,,---,0.00,VWS V14.01,2013-03-31 17:20:00,
2013-03-31 13:25:00,56.2,37.3,29.92,South,190,6.0,18.0,49,0.00,,---,0.00,VWS V14.01,2013-03-31 17:25:00,
2013-03-31 13:30:00,56.5,37.1,29.92,South,181,5.0,18.0,48,0.00,,---,0.00,VWS V14.01,2013-03-31 17:30:00,
2013-03-31 13:35:00,56.9,37.4,29.91,ESE,118,7.0,18.0,48,0.00,,---,0.00,VWS V14.01,2013-03-31 17:35:00,
2013-03-31 13:40:00,57.0,37.5,29.91,SSE,150,13.0,18.0,48,0.00,,---,0.00,VWS V14.01,2013-03-31 17:40:00,
2013-03-31 13:46:00,56.6,37.2,29.90,South,176,1.0,18.0,48,0.00,,---,0.00,VWS V14.01,2013-03-31 17:46:00,
2013-03-31 13:51:00,56.7,37.8,29.90,SE,135,4.0,18.0,49,0.00,,---,0.00,VWS V14.01,2013-03-31 17:51:00,
2013-03-31 13:56:00,56.8,37.9,29.90,SSE,153,5.0,18.0,49,0.00,,---,0.00,VWS V14.01,2013-03-31 17:56:00,
2013-03-31 14:00:00,56.6,37.7,29.89,SSE,166,4.0,18.0,49,0.00,,---,0.00,VWS V14.01,2013-03-31 18:00:00,
2013-03-31 14:01:00,56.6,37.7,29.89,SE,145,2.0,8.0,49,0.00,,---,0.00,VWS V14.01,2013-03-31 18:01:00,
2013-03-31 14:06:00,56.5,38.6,29.89,South,188,1.0,8.0,51,0.00,,---,0.00,VWS V14.01,2013-03-31 18:06:00,
2013-03-31 14:12:00,56.6,38.2,29.88,SSE,160,1.0,9.0,50,0.00,,---,0.00,VWS V14.01,2013-03-31 18:12:00,
2013-03-31 14:17:00,56.6,38.2,29.88,SE,128,3.0,9.0,50,0.00,,---,0.00,VWS V14.01,2013-03-31 18:17:00,
2013-03-31 14:22:00,56.8,38.4,29.88,SSE,155,4.0,11.0,50,0.00,,---,0.00,VWS V14.01,2013-03-31 18:22:00,
2013-03-31 14:27:00,57.0,38.6,29.87,SSW,198,1.0,11.0,50,0.00,,---,0.00,VWS V14.01,2013-03-31 18:27:00,
2013-03-31 14:30:00,57.3,38.8,29.87,SE,145,5.0,11.0,50,0.00,,---,0.00,VWS V14.01,2013-03-31 18:30:00,
2013-03-31 14:32:00,57.3,38.8,29.87,SSE,164,4.0,7.0,50,0.00,,---,0.00,VWS V14.01,2013-03-31 18:32:00,
2013-03-31 14:37:00,57.5,39.5,29.87,SSE,166,4.0,13.0,51,0.00,,---,0.00,VWS V14.01,2013-03-31 18:37:00,
2013-03-31 14:42:00,57.7,39.2,29.87,SE,144,4.0,13.0,50,0.00,,---,0.00,VWS V14.01,2013-03-31 18:42:00,
2013-03-31 14:47:00,57.7,39.2,29.86,SSE,165,4.0,13.0,50,0.00,,---,0.00,VWS V14.01,2013-03-31 18:47:00,
2013-03-31 14:52:00,57.6,39.6,29.86,SSE,155,4.0,13.0,51,0.00,,---,0.00,VWS V14.01,2013-03-31 18:52:00,
2013-03-31 14:57:00,57.3,39.3,29.86,SSE,157,3.0,13.0,51,0.00,,---,0.00,VWS V14.01,2013-03-31 18:57:00,
2013-03-31 15:00:00,57.2,39.2,29.86,SSE,148,6.0,13.0,51,0.00,,---,0.00,VWS V14.01,2013-03-31 19:00:00,
2013-03-31 15:02:00,57.1,39.7,29.86,South,172,3.0,10.0,52,0.00,,---,0.00,VWS V14.01,2013-03-31 19:02:00,
2013-03-31 15:07:00,56.9,40.0,29.86,SSE,157,6.0,10.0,53,0.00,,---,0.00,VWS V14.01,2013-03-31 19:07:00,
2013-03-31 15:12:00,56.6,40.2,29.85,SSE,149,5.0,11.0,54,0.00,,---,0.00,VWS V14.01,2013-03-31 19:12:00,
2013-03-31 15:18:00,56.4,40.0,29.85,SSE,155,8.0,14.0,54,0.00,,---,0.00,VWS V14.01,2013-03-31 19:18:00,
2013-03-31 15:23:00,56.0,40.1,29.85,ESE,111,8.0,14.0,55,0.00,,---,0.00,VWS V14.01,2013-03-31 19:23:00,
2013-03-31 15:28:00,55.6,41.5,29.85,ESE,118,0.0,14.0,59,0.00,,---,0.00,VWS V14.01,2013-03-31 19:28:00,
2013-03-31 15:30:00,55.2,42.0,29.85,SSE,161,4.0,14.0,61,0.00,,---,0.00,VWS V14.01,2013-03-31 19:30:00,
2013-03-31 15:33:00,54.8,42.0,29.85,SE,137,3.0,10.0,62,0.00,,---,0.00,VWS V14.01,2013-03-31 19:33:00,
2013-03-31 15:38:00,53.8,43.1,29.85,South,175,4.0,15.0,67,0.00,,---,0.00,VWS V14.01,2013-03-31 19:38:00,
2013-03-31 15:43:00,52.6,43.1,29.85,South,170,1.0,15.0,70,0.00,,---,0.00,VWS V14.01,2013-03-31 19:43:00,
2013-03-31 15:48:00,51.5,43.5,29.85,SSE,155,4.0,15.0,74,0.01,,---,0.01,VWS V14.01,2013-03-31 19:48:00,
2013-03-31 15:53:00,50.8,44.2,29.85,SSE,150,2.0,15.0,78,0.02,,---,0.02,VWS V14.01,2013-03-31 19:53:00,
2013-03-31 15:58:00,50.1,44.2,29.85,SE,141,0.0,15.0,80,0.03,,---,0.03,VWS V14.01,2013-03-31 19:58:00,
2013-03-31 16:05:00,49.6,44.7,29.85,SE,145,0.0,0.0,83,0.05,,---,0.05,VWS V14.01,2013-03-31 20:05:00,
2013-03-31 16:10:00,49.2,44.6,29.84,SE,128,0.0,8.0,84,0.08,,---,0.08,VWS V14.01,2013-03-31 20:10:00,
2013-03-31 16:15:00,48.8,44.5,29.84,SSE,147,2.0,8.0,85,0.10,,---,0.10,VWS V14.01,2013-03-31 20:15:00,
2013-03-31 16:20:00,48.6,44.6,29.83,SE,132,0.0,8.0,86,0.10,,---,0.10,VWS V14.01,2013-03-31 20:20:00,
2013-03-31 16:25:00,48.4,44.7,29.83,SE,128,3.0,8.0,87,0.12,,---,0.12,VWS V14.01,2013-03-31 20:25:00,
2013-03-31 16:30:00,48.1,44.4,29.82,SSE,153,2.0,8.0,87,0.12,,---,0.12,VWS V14.01,2013-03-31 20:30:00,
2013-03-31 16:35:00,48.0,44.6,29.82,SSE,149,0.0,7.0,88,0.13,,---,0.13,VWS V14.01,2013-03-31 20:35:00,
2013-03-31 16:40:00,48.0,44.6,29.82,ESE,111,4.0,7.0,88,0.15,,---,0.15,VWS V14.01,2013-03-31 20:40:00,
2013-03-31 16:45:00,47.7,44.3,29.82,WSW,238,0.0,7.0,88,0.16,,---,0.16,VWS V14.01,2013-03-31 20:45:00,
2013-03-31 16:50:00,47.6,44.2,29.82,SE,136,2.0,7.0,88,0.16,,---,0.16,VWS V14.01,2013-03-31 20:50:00,
2013-03-31 16:55:00,47.5,44.4,29.81,SSE,161,0.0,7.0,89,0.17,,---,0.17,VWS V14.01,2013-03-31 20:55:00,
2013-03-31 17:00:00,47.4,44.3,29.81,SE,124,3.0,7.0,89,0.17,,---,0.17,VWS V14.01,2013-03-31 21:00:00,
2013-03-31 17:06:00,47.4,44.3,29.80,SSE,164,1.0,5.0,89,0.05,,---,0.17,VWS V14.01,2013-03-31 21:06:00,
2013-03-31 17:11:00,47.3,44.2,29.80,SE,126,4.0,5.0,89,0.05,,---,0.17,VWS V14.01,2013-03-31 21:11:00,
2013-03-31 17:16:00,47.3,44.2,29.79,ESE,117,1.0,5.0,89,0.05,,---,0.17,VWS V14.01,2013-03-31 21:16:00,
2013-03-31 17:21:00,47.3,44.2,29.79,ENE,72,3.0,7.0,89,0.05,,---,0.17,VWS V14.01,2013-03-31 21:21:00,
2013-03-31 17:26:00,47.3,44.2,29.79,SE,140,2.0,7.0,89,0.05,,---,0.17,VWS V14.01,2013-03-31 21:26:00,
2013-03-31 17:30:00,47.3,44.2,29.78,SSE,152,1.0,8.0,89,0.05,,---,0.17,VWS V14.01,2013-03-31 21:30:00,
2013-03-31 17:31:00,47.3,44.2,29.78,ESE,102,0.0,4.0,89,0.05,,---,0.17,VWS V14.01,2013-03-31 21:31:00,
2013-03-31 17:37:00,47.3,44.2,29.78,ESE,112,7.0,9.0,89,0.05,,---,0.17,VWS V14.01,2013-03-31 21:37:00,
2013-03-31 17:42:00,47.4,44.6,29.78,East,101,3.0,9.0,90,0.05,,---,0.17,VWS V14.01,2013-03-31 21:42:00,
2013-03-31 17:47:00,47.4,44.6,29.78,East,88,1.0,9.0,90,0.05,,---,0.17,VWS V14.01,2013-03-31 21:47:00,
2013-03-31 17:52:00,47.4,44.6,29.77,SE,125,0.0,9.0,90,0.05,,---,0.17,VWS V14.01,2013-03-31 21:52:00,
2013-03-31 17:57:00,47.4,44.6,29.77,SE,130,0.0,12.0,90,0.05,,---,0.17,VWS V14.01,2013-03-31 21:57:00,
2013-03-31 18:00:00,47.5,44.7,29.77,SE,125,2.0,12.0,90,0.06,,---,0.18,VWS V14.01,2013-03-31 22:00:00,
2013-03-31 18:02:00,47.5,44.7,29.77,SE,124,3.0,4.0,90,0.01,,---,0.18,VWS V14.01,2013-03-31 22:02:00,
2013-03-31 18:07:00,47.4,44.6,29.77,ESE,107,2.0,9.0,90,0.01,,---,0.18,VWS V14.01,2013-03-31 22:07:00,
2013-03-31 18:12:00,47.5,44.7,29.76,East,96,10.0,10.0,90,0.01,,---,0.18,VWS V14.01,2013-03-31 22:12:00,
2013-03-31 18:17:00,47.5,44.7,29.76,SSE,166,0.0,10.0,90,0.01,,---,0.18,VWS V14.01,2013-03-31 22:17:00,
2013-03-31 18:22:00,47.5,44.7,29.75,SE,132,0.0,11.0,90,0.01,,---,0.18,VWS V14.01,2013-03-31 22:22:00,
2013-03-31 18:27:00,47.5,44.7,29.75,ESE,115,1.0,11.0,90,0.01,,---,0.18,VWS V14.01,2013-03-31 22:27:00,
2013-03-31 18:30:00,47.5,44.7,29.74,SE,144,5.0,11.0,90,0.02,,---,0.19,VWS V14.01,2013-03-31 22:30:00,
2013-03-31 18:33:00,47.5,44.7,29.74,ESE,123,5.0,7.0,90,0.02,,---,0.19,VWS V14.01,2013-03-31 22:33:00,
2013-03-31 18:38:00,47.5,44.7,29.74,SE,144,2.0,8.0,90,0.02,,---,0.19,VWS V14.01,2013-03-31 22:38:00,
2013-03-31 18:43:00,47.5,44.7,29.74,SE,134,10.0,15.0,90,0.02,,---,0.19,VWS V14.01,2013-03-31 22:43:00,
2013-03-31 18:48:00,47.4,44.6,29.73,SE,132,1.0,15.0,90,0.02,,---,0.19,VWS V14.01,2013-03-31 22:48:00,
2013-03-31 18:53:00,47.4,44.6,29.73,SE,138,1.0,15.0,90,0.02,,---,0.19,VWS V14.01,2013-03-31 22:53:00,
2013-03-31 18:58:00,47.3,44.5,29.73,ENE,62,2.0,15.0,90,0.02,,---,0.19,VWS V14.01,2013-03-31 22:58:00,
2013-03-31 19:05:00,47.2,44.4,29.72,SE,142,1.0,4.0,90,0.02,,---,0.19,VWS V14.01,2013-03-31 23:05:00,
2013-03-31 19:10:00,47.2,44.4,29.72,SSE,159,0.0,10.0,90,0.02,,---,0.19,VWS V14.01,2013-03-31 23:10:00,
2013-03-31 19:16:00,47.1,44.3,29.72,ESE,108,0.0,10.0,90,0.02,,---,0.19,VWS V14.01,2013-03-31 23:16:00,
2013-03-31 19:21:00,47.0,44.2,29.71,SE,138,8.0,10.0,90,0.02,,---,0.19,VWS V14.01,2013-03-31 23:21:00,
2013-03-31 19:26:00,47.0,44.2,29.71,SSW,198,5.0,10.0,90,0.02,,---,0.19,VWS V14.01,2013-03-31 23:26:00,
2013-03-31 19:30:00,47.0,44.2,29.71,SE,133,0.0,10.0,90,0.02,,---,0.19,VWS V14.01,2013-03-31 23:30:00,
2013-03-31 19:31:00,47.0,44.2,29.71,SE,134,3.0,3.0,90,0.00,,---,0.19,VWS V14.01,2013-03-31 23:31:00,
2013-03-31 19:36:00,46.9,44.1,29.71,East,94,3.0,5.0,90,0.00,,---,0.19,VWS V14.01,2013-03-31 23:36:00,
2013-03-31 19:42:00,46.9,44.1,29.71,SW,217,0.0,7.0,90,0.00,,---,0.19,VWS V14.01,2013-03-31 23:42:00,
2013-03-31 19:47:00,46.9,44.1,29.71,ESE,118,4.0,7.0,90,0.00,,---,0.19,VWS V14.01,2013-03-31 23:47:00,
2013-03-31 19:52:00,46.9,44.1,29.70,SE,145,0.0,11.0,90,0.01,,---,0.20,VWS V14.01,2013-03-31 23:52:00,
2013-03-31 19:57:00,46.9,44.1,29.70,SSE,149,0.0,11.0,90,0.01,,---,0.20,VWS V14.01,2013-03-31 23:57:00,
2013-03-31 20:00:00,46.9,44.1,29.69,SSE,150,2.0,11.0,90,0.01,,---,0.20,VWS V14.01,2013-04-01 00:00:00,
2013-03-31 20:02:00,46.9,44.1,29.69,SSE,150,0.0,2.0,90,0.01,,---,0.20,VWS V14.01,2013-04-01 00:02:00,
2013-03-31 20:07:00,46.8,44.0,29.69,SE,126,1.0,6.0,90,0.01,,---,0.20,VWS V14.01,2013-04-01 00:07:00,
2013-03-31 20:12:00,46.8,44.0,29.69,South,182,0.0,6.0,90,0.01,,---,0.20,VWS V14.01,2013-04-01 00:12:00,
2013-03-31 20:17:00,46.8,44.0,29.70,SSE,164,2.0,6.0,90,0.01,,---,0.20,VWS V14.01,2013-04-01 00:17:00,
2013-03-31 20:22:00,46.9,44.1,29.70,SSE,164,0.0,6.0,90,0.01,,---,0.20,VWS V14.01,2013-04-01 00:22:00,
2013-03-31 20:27:00,46.9,44.4,29.70,SSW,192,1.0,6.0,91,0.01,,---,0.20,VWS V14.01,2013-04-01 00:27:00,
2013-03-31 20:30:00,46.9,44.4,29.70,SSW,192,0.0,6.0,91,0.01,,---,0.20,VWS V14.01,2013-04-01 00:30:00,
2013-03-31 20:32:00,47.0,44.5,29.70,SSW,192,0.0,1.0,91,0.01,,---,0.20,VWS V14.01,2013-04-01 00:32:00,
2013-03-31 20:37:00,47.0,44.5,29.70,SSW,192,0.0,1.0,91,0.01,,---,0.20,VWS V14.01,2013-04-01 00:37:00,
2013-03-31 20:43:00,46.9,44.4,29.70,SSW,192,0.0,1.0,91,0.01,,---,0.20,VWS V14.01,2013-04-01 00:43:00,
2013-03-31 20:48:00,47.0,44.5,29.69,SSW,192,0.0,1.0,91,0.01,,---,0.20,VWS V14.01,2013-04-01 00:48:00,
2013-03-31 20:53:00,46.9,44.4,29.69,SSW,192,0.0,1.0,91,0.01,,---,0.20,VWS V14.01,2013-04-01 00:53:00,
2013-03-31 20:58:00,47.0,44.5,29.69,SSW,192,0.0,1.0,91,0.01,,---,0.20,VWS V14.01,2013-04-01 00:58:00,
2013-03-31 21:00:00,47.0,44.5,29.69,SSW,192,0.0,1.0,91,0.01,,---,0.20,VWS V14.01,2013-04-01 01:00:00,
2013-03-31 21:03:00,47.1,44.6,29.69,SSW,192,0.0,0.0,91,0.00,,---,0.20,VWS V14.01,2013-04-01 01:03:00,
2013-03-31 21:08:00,47.1,44.6,29.69,SSW,192,0.0,0.0,91,0.00,,---,0.20,VWS V14.01,2013-04-01 01:08:00,
2013-03-31 21:13:00,47.1,44.6,29.69,SSW,192,0.0,0.0,91,0.00,,---,0.20,VWS V14.01,2013-04-01 01:13:00,
2013-03-31 21:18:00,47.1,44.6,29.69,SSW,192,0.0,0.0,91,0.00,,---,0.20,VWS V14.01,2013-04-01 01:18:00,
2013-03-31 21:23:00,47.1,44.6,29.69,SSW,192,0.0,0.0,91,0.01,,---,0.21,VWS V14.01,2013-04-01 01:23:00,
2013-03-31 21:28:00,47.1,44.6,29.69,SSW,192,0.0,0.0,91,0.01,,---,0.21,VWS V14.01,2013-04-01 01:28:00,
2013-03-31 21:30:00,47.2,44.7,29.69,SSW,192,0.0,0.0,91,0.01,,---,0.21,VWS V14.01,2013-04-01 01:30:00,
2013-03-31 21:33:00,47.2,44.7,29.70,SSW,192,0.0,1.0,91,0.01,,---,0.21,VWS V14.01,2013-04-01 01:33:00,
2013-03-31 21:38:00,47.3,44.8,29.69,SSW,192,0.0,1.0,91,0.01,,---,0.21,VWS V14.01,2013-04-01 01:38:00,
2013-03-31 21:43:00,47.3,44.8,29.69,SSW,192,0.0,1.0,91,0.01,,---,0.21,VWS V14.01,2013-04-01 01:43:00,
2013-03-31 21:49:00,47.3,44.8,29.69,SSW,192,0.0,1.0,91,0.01,,---,0.21,VWS V14.01,2013-04-01 01:49:00,
2013-03-31 21:54:00,47.3,44.8,29.69,SSW,192,0.0,1.0,91,0.01,,---,0.21,VWS V14.01,2013-04-01 01:54:00,
2013-03-31 21:59:00,47.4,44.9,29.69,SSW,192,0.0,1.0,91,0.01,,---,0.21,VWS V14.01,2013-04-01 01:59:00,
2013-03-31 22:05:00,47.5,45.0,29.70,SSW,192,0.0,0.0,91,0.01,,---,0.21,VWS V14.01,2013-04-01 02:05:00,
2013-03-31 22:10:00,47.5,45.0,29.69,SSW,192,0.0,0.0,91,0.01,,---,0.21,VWS V14.01,2013-04-01 02:10:00,
2013-03-31 22:15:00,47.5,45.0,29.69,SSW,192,0.0,0.0,91,0.01,,---,0.21,VWS V14.01,2013-04-01 02:15:00,
2013-03-31 22:20:00,47.5,45.0,29.69,SSW,192,0.0,0.0,91,0.01,,---,0.21,VWS V14.01,2013-04-01 02:20:00,
2013-03-31 22:25:00,47.6,45.1,29.69,SSW,192,0.0,1.0,91,0.01,,---,0.21,VWS V14.01,2013-04-01 02:25:00,
2013-03-31 22:30:00,47.6,45.1,29.68,SSW,192,0.0,1.0,91,0.01,,---,0.21,VWS V14.01,2013-04-01 02:30:00,
2013-03-31 22:35:00,47.8,45.3,29.68,SSW,192,0.0,2.0,91,0.00,,---,0.21,VWS V14.01,2013-04-01 02:35:00,
2013-03-31 22:40:00,48.0,45.5,29.69,WSW,246,0.0,3.0,91,0.00,,---,0.21,VWS V14.01,2013-04-01 02:40:00,
2013-03-31 22:45:00,48.1,45.9,29.69,WSW,246,0.0,3.0,92,0.00,,---,0.21,VWS V14.01,2013-04-01 02:45:00,
2013-03-31 22:50:00,48.4,46.2,29.68,SW,223,1.0,5.0,92,0.00,,---,0.21,VWS V14.01,2013-04-01 02:50:00,
2013-03-31 22:55:00,48.6,46.4,29.68,SW,223,0.0,5.0,92,0.00,,---,0.21,VWS V14.01,2013-04-01 02:55:00,
2013-03-31 23:00:00,48.8,46.6,29.69,WSW,248,1.0,5.0,92,0.00,,---,0.21,VWS V14.01,2013-04-01 03:00:00,
2013-03-31 23:05:00,49.0,46.8,29.69,WSW,252,0.0,4.0,92,0.00,,---,0.21,VWS V14.01,2013-04-01 03:05:00,
2013-03-31 23:11:00,49.2,47.0,29.69,WNW,294,1.0,11.0,92,0.00,,---,0.21,VWS V14.01,2013-04-01 03:11:00,
2013-03-31 23:16:00,49.3,47.1,29.69,WSW,245,4.0,11.0,92,0.00,,---,0.21,VWS V14.01,2013-04-01 03:16:00,
2013-03-31 23:21:00,49.4,46.9,29.69,WSW,244,3.0,11.0,91,0.00,,---,0.21,VWS V14.01,2013-04-01 03:21:00,
2013-03-31 23:26:00,49.4,46.9,29.69,WSW,254,1.0,11.0,91,0.00,,---,0.21,VWS V14.01,2013-04-01 03:26:00,
2013-03-31 23:31:00,49.4,47.2,29.69,SW,229,2.0,3.0,92,0.00,,---,0.21,VWS V14.01,2013-04-01 03:31:00,
2013-03-31 23:36:00,49.3,46.8,29.69,SW,232,0.0,6.0,91,0.00,,---,0.21,VWS V14.01,2013-04-01 03:36:00,
2013-03-31 23:42:00,49.2,46.7,29.69,WSW,244,0.0,8.0,91,0.00,,---,0.21,VWS V14.01,2013-04-01 03:42:00,
2013-03-31 23:47:00,49.2,46.7,29.69,SW,234,0.0,8.0,91,0.00,,---,0.21,VWS V14.01,2013-04-01 03:47:00,
2013-03-31 23:52:00,49.1,46.6,29.69,SW,233,0.0,8.0,91,0.00,,---,0.21,VWS V14.01,2013-04-01 03:52:00,
2013-03-31 23:57:00,49.1,46.6,29.70,WSW,256,0.0,8.0,91,0.00,,---,0.21,VWS V14.01,2013-04-01 03:57:00,